[[{"header":{"parameterUnit":"m.s-1","parameterCategory":1,"la1":30.2991,"la2":30.254,"lo1":-89.0895,"lo2":-89.0444,"dy":0.0017,"dx":0.0017,"nx":28,"ny":28,"refTime":"2023-10-21T09:00:00:Z","depth":0,"parameterNumber":2,"parameterNumberName":"U-component_of_WINDS"},"data":[0,0,0,0,0,0,0,0,0,0,0,0,0,0,0,0,0,0,0,0,0,0,0,0,0,0,0,0,0,0,0,0,0,0,0,0,0,0,0,0,0,0,0,0,0,0,0,0,0,0,0,0,0,0,0,0,0,0,1.7011,1.7011,0,1.7064,1.7064,1.7065,1.7025,1.7024,1.7022,1.702,1.7075,1.7078,1.7081,0,0,0,0,0,0,0,0,0,0,0,0,0,1.6875,1.6878,1.7011,1.7011,1.7012,1.7064,1.7064,1.7065,1.7026,1.7023,1.7021,1.7019,1.7074,1.7078,1.7081,0,0,0,0,0,0,0,0,0,0,0,0,0,1.6932,1.6879,1.7011,1.6999,1.6998,1.7064,1.7065,1.7065,1.7026,1.7023,1.7021,1.7018,1.7073,1.7077,1.7082,1.7162,0,0,1.7096,1.7098,0,0,0,0,0,0,0,0,1.6929,1.6937,1.7,1.7,1.6999,1.7035,1.7037,1.7098,1.7027,1.7015,1.702,1.7017,1.7064,1.7069,1.7085,1.7165,1.7167,1.7096,1.7099,1.7101,1.7102,0,0,0,0,0,0,0,1.6925,1.6934,1.7032,1.7001,1.7,1.6991,1.6996,1.7048,1.7054,1.7016,1.7013,1.702,1.7063,1.708,1.7086,1.7168,1.7096,1.71,1.7103,1.7105,1.7316,1.7319,0,0,0,0,0,0,1.6922,1.6931,1.703,1.7033,1.6957,1.6995,1.7001,1.7026,1.7053,1.7054,1.7022,1.7018,1.7074,1.708,1.7087,1.7183,1.7101,1.7105,1.7108,1.7314,1.7317,1.732,0,0,0,0,0,0,1.6919,1.6931,1.7028,1.6982,1.6993,1.7,1.7029,1.7029,1.7046,1.7058,1.7058,1.7039,1.7072,1.7081,1.7144,1.7185,1.7107,1.7112,1.731,1.7315,1.7319,1.7376,0,0,0,0,0,0,1.6916,1.6931,1.6961,1.6983,1.6996,1.7084,1.7032,1.7032,1.7054,1.7049,1.7073,1.7075,1.7071,1.7137,1.7148,1.719,1.7115,1.7307,1.7312,1.7317,1.737,1.7381,1.7391,0,0,0,0,0,1.6911,1.6975,1.6963,1.6975,1.7034,1.7086,1.7094,1.7087,1.7057,1.7088,1.7096,1.7074,1.7178,1.7144,1.7156,1.7199,1.7304,1.7311,1.7317,1.7366,1.7379,1.7391,0,0,0,0,0,0,1.6959,1.6978,1.6964,1.7038,1.7061,1.7079,1.7118,1.7102,1.7134,1.7128,1.7119,1.7125,1.7191,1.7201,1.7163,1.7279,1.7236,1.7246,1.7269,1.7282,1.7293,1.7289,1.7119,0,0,0,0,0,1.6978,1.7018,1.7033,1.7096,1.7108,1.7111,1.7133,1.7127,1.715,1.7159,1.7171,1.7195,1.7233,1.7258,1.7294,1.7372,1.7376,1.7407,1.7418,1.7426,1.7434,1.7476,1.749,1.7341,1.7341,1.7341,0,0,1.7018,1.7033,1.7059,1.7106,1.7123,1.7165,1.712,1.7166,1.7197,1.7166,1.7226,1.7236,1.7262,1.7332,1.7364,1.7343,1.7476,1.7434,1.7441,1.7445,1.7484,1.7498,1.7511,1.7346,1.7345,1.7344,0,0,1.7112,1.7127,1.7182,1.7199,1.7225,1.7227,1.724,1.7261,1.7267,1.7327,1.7304,1.7341,1.7407,1.7426,1.7444,1.7545,1.7527,1.7557,1.7611,1.7652,1.7664,1.7674,1.771,1.7723,1.7565,1.7565,1.7565,0,1.7158,1.722,1.7212,1.726,1.7281,1.7255,1.731,1.7327,1.7364,1.7379,1.7355,1.7437,1.7452,1.7527,1.7552,1.7567,1.7582,1.7554,1.7663,1.7673,1.7683,1.7717,1.773,1.7569,1.7568,1.7568,1.7568,0,1.7276,1.7319,1.736,1.7395,1.7421,1.7472,1.7472,1.7499,1.749,1.7494,1.7555,1.7573,1.7611,1.7628,1.762,1.7702,1.7688,1.7664,1.7621,1.7701,1.7732,1.7745,1.7574,1.7573,1.7572,1.7571,0,0,1.7401,1.7431,1.7446,1.7462,1.7489,1.7522,1.7572,1.761,1.7633,1.7659,1.7701,1.7757,1.7734,1.7755,1.7749,1.7784,1.7863,1.7756,1.7756,1.7775,1.7954,1.7972,1.7988,1.7851,1.7853,1.7855,1.7952,0,1.7496,1.7583,1.7577,1.7659,1.7699,1.7675,1.7718,1.7739,1.7745,1.7779,1.7785,1.7825,1.7792,1.7804,1.7839,1.7846,1.7899,1.7839,1.789,1.7891,1.7884,1.8004,1.8024,1.8114,1.7965,1.7967,1.7968,0,1.7619,1.7649,1.7735,1.7755,1.7772,1.7811,1.7845,1.7878,1.7902,1.7903,1.7926,1.7913,1.7964,1.792,1.7989,1.7949,1.7969,1.7976,1.7979,1.7984,1.7935,1.8012,1.8143,1.8157,1.7988,1.7986,1.7985,0,1.7702,1.7764,1.7823,1.7837,1.7863,1.7891,1.7902,1.7923,1.7946,1.7976,1.799,1.8026,1.8045,1.8073,1.807,1.8038,1.814,1.8096,1.8143,1.8143,1.8165,1.8164,1.8301,1.8179,1.8178,1.8178,1.8178,0,1.7809,1.7862,1.7861,1.7897,1.7956,1.7948,1.8007,1.8016,1.8035,1.8072,1.8054,1.809,1.8084,1.812,1.8118,1.8176,1.8185,1.8187,1.8186,1.8189,1.8188,1.8202,1.8195,1.8182,1.8181,1.818,1.818,0,1.7911,1.7912,1.7975,1.7994,1.8,1.8043,1.8059,1.8093,1.8097,1.8145,1.8156,1.8161,1.8202,1.8202,1.825,1.8248,1.8319,1.8311,1.8311,1.8309,1.8356,1.8352,1.8507,1.8527,1.8391,1.8392,1.8393,0,1.7979,1.802,1.8043,1.8067,1.808,1.8119,1.8142,1.8136,1.8161,1.8191,1.8222,1.8261,1.8292,1.836,1.8368,1.8404,1.8396,1.8448,1.8402,1.8403,1.8397,1.8395,1.8399,1.8457,1.8459,1.846,1.8461,0,1.81,1.8098,1.8132,1.8167,1.8195,1.8222,1.8247,1.8267,1.8264,1.8293,1.8335,1.8359,1.8407,1.8447,1.8481,1.8493,1.8477,1.8476,1.8488,1.8492,1.849,1.8491,1.8336,1.8472,1.8471,1.847,1.847,1.8469,1.8187,1.8222,1.8244,1.8282,1.83,1.8323,1.8357,1.8364,1.8399,1.8438,1.8432,1.8479,1.8501,1.8546,1.8561,1.8598,1.8579,1.8598,1.8602,1.8607,1.8612,1.8484,1.8604,1.8604,1.8603,1.8603,1.8603,0,1.8307,1.8319,1.8355,1.839,1.842,1.8402,1.8428,1.8455,1.8496,1.8518,1.8549,1.8597,1.8635,1.8647,1.8684,1.8711,1.8704,1.8721,1.8718,1.8722,1.8626,1.8612,1.8725,1.8725,1.8725,1.8725,1.8725,1.8725,1.8373,1.843,1.8431,1.8498,1.851,1.8555,1.8572,1.8594,1.8611,1.8665,1.8697,1.8704,1.8722,1.876,1.8794,1.8796,1.8811,1.883,1.883,1.8741,1.8728,1.8717,1.8703,1.8834,1.8834,1.8922,1.8923,1.8923]},{"header":{"parameterUnit":"m.s-1","parameterCategory":1,"la1":30.2991,"la2":30.254,"lo1":-89.0895,"lo2":-89.0444,"dy":0.0017,"dx":0.0017,"nx":28,"ny":28,"refTime":"2023-10-21T09:00:00:Z","depth":0,"parameterNumber":3,"parameterNumberName":"V-component_of_WINDS"},"data":[0,0,0,0,0,0,0,0,0,0,0,0,0,0,0,0,0,0,0,0,0,0,0,0,0,0,0,0,0,0,0,0,0,0,0,0,0,0,0,0,0,0,0,0,0,0,0,0,0,0,0,0,0,0,0,0,0,0,0.2417,0.2418,0,0.2495,0.2495,0.2496,0.2514,0.2513,0.2513,0.2512,0.2594,0.2597,0.26,0,0,0,0,0,0,0,0,0,0,0,0,0,0.2287,0.229,0.2417,0.2418,0.2419,0.2494,0.2495,0.2497,0.2514,0.2513,0.2513,0.2512,0.2593,0.2597,0.26,0,0,0,0,0,0,0,0,0,0,0,0,0,0.2352,0.229,0.2417,0.2437,0.2439,0.2494,0.2495,0.2497,0.2514,0.2513,0.2512,0.2512,0.2592,0.2596,0.26,0.2642,0,0,0.2613,0.2614,0,0,0,0,0,0,0,0,0.2348,0.2357,0.2433,0.2436,0.2438,0.2494,0.248,0.2546,0.2514,0.2486,0.2512,0.2511,0.2562,0.2568,0.2585,0.2646,0.2649,0.2613,0.2615,0.2617,0.2618,0,0,0,0,0,0,0,0.2344,0.2354,0.2448,0.2434,0.2437,0.2443,0.2451,0.2492,0.2528,0.2488,0.249,0.2498,0.2563,0.2581,0.2587,0.265,0.2613,0.2616,0.2619,0.2621,0.275,0.2751,0,0,0,0,0,0,0.2336,0.235,0.2445,0.245,0.239,0.2446,0.2455,0.2477,0.2527,0.2534,0.2499,0.2499,0.2574,0.2582,0.259,0.2642,0.2617,0.2621,0.2623,0.2749,0.275,0.2751,0,0,0,0,0,0,0.2333,0.2344,0.2442,0.24,0.2413,0.2449,0.2473,0.2479,0.2496,0.2535,0.2542,0.251,0.2574,0.2584,0.2629,0.2645,0.2623,0.2626,0.2748,0.2749,0.2751,0.2747,0,0,0,0,0,0,0.2329,0.2343,0.2358,0.2401,0.2415,0.2479,0.2474,0.2481,0.2503,0.2504,0.2548,0.2554,0.2574,0.2622,0.2633,0.265,0.263,0.2746,0.2748,0.275,0.2746,0.2748,0.275,0,0,0,0,0,0.2324,0.2355,0.2359,0.237,0.2435,0.248,0.2489,0.251,0.2504,0.2521,0.2546,0.2553,0.2641,0.2627,0.2638,0.2658,0.2745,0.2748,0.275,0.2745,0.2748,0.275,0,0,0,0,0,0,0.2315,0.2361,0.2366,0.2411,0.2441,0.2483,0.2504,0.2512,0.2546,0.2545,0.2571,0.2581,0.2624,0.2645,0.2628,0.2701,0.2693,0.2698,0.2685,0.2688,0.2691,0.2685,0.2633,0,0,0,0,0,0.2318,0.2349,0.2388,0.2424,0.2439,0.2469,0.2489,0.2503,0.2536,0.2549,0.2577,0.261,0.2645,0.2668,0.2702,0.2748,0.2759,0.2767,0.2769,0.2771,0.2775,0.2802,0.2806,0.2759,0.2759,0.2759,0,0,0.2325,0.2353,0.2372,0.2423,0.2448,0.2481,0.248,0.2515,0.254,0.2555,0.2598,0.262,0.2658,0.2704,0.2725,0.2723,0.2791,0.2774,0.2775,0.2778,0.2805,0.2809,0.2813,0.276,0.276,0.276,0,0,0.2354,0.2379,0.2411,0.2436,0.2474,0.2494,0.2502,0.2542,0.2557,0.2601,0.2613,0.2643,0.2703,0.273,0.2751,0.279,0.2799,0.2801,0.2813,0.2838,0.2842,0.2846,0.286,0.2865,0.2804,0.2804,0.2804,0,0.2358,0.2407,0.2428,0.2462,0.2484,0.2498,0.2532,0.2556,0.2603,0.2619,0.2615,0.269,0.2717,0.2769,0.2778,0.2795,0.2806,0.2796,0.284,0.2844,0.2847,0.2862,0.2867,0.2805,0.2805,0.2805,0.2805,0,0.2411,0.2445,0.2467,0.2511,0.2536,0.257,0.2596,0.2619,0.263,0.265,0.2696,0.2728,0.2769,0.2782,0.2794,0.2837,0.2834,0.2834,0.2828,0.2851,0.2865,0.2871,0.2805,0.2805,0.2805,0.2805,0,0,0.2438,0.2492,0.25,0.252,0.2563,0.259,0.2625,0.2664,0.2683,0.2716,0.2746,0.2796,0.2797,0.2821,0.2836,0.2858,0.2888,0.2856,0.2858,0.2862,0.2938,0.2938,0.2944,0.2893,0.2894,0.2895,0.2935,0,0.2473,0.2535,0.2554,0.2606,0.2638,0.2651,0.2681,0.2711,0.2731,0.2762,0.2784,0.2819,0.2817,0.2832,0.2854,0.2879,0.2904,0.2877,0.2923,0.2924,0.2914,0.2951,0.2951,0.2987,0.294,0.2941,0.2942,0,0.2523,0.2555,0.261,0.2648,0.2662,0.2689,0.2727,0.2755,0.279,0.2803,0.2829,0.2842,0.288,0.287,0.2923,0.2904,0.2924,0.2939,0.2941,0.2947,0.2935,0.2959,0.2999,0.3005,0.2951,0.295,0.2949,0,0.2538,0.2595,0.2635,0.2652,0.2697,0.2716,0.2736,0.2769,0.2791,0.2825,0.284,0.2877,0.2898,0.2927,0.295,0.294,0.3001,0.2993,0.3014,0.3013,0.3027,0.3026,0.3072,0.3038,0.3038,0.3038,0.3038,0,0.2576,0.2609,0.2642,0.2667,0.2705,0.2727,0.2764,0.2785,0.2814,0.2844,0.2858,0.2886,0.2913,0.2945,0.2963,0.3005,0.3014,0.3026,0.3031,0.3026,0.3024,0.304,0.3039,0.3039,0.3039,0.3039,0.3038,0,0.26,0.2623,0.2668,0.2707,0.2717,0.2743,0.2777,0.2802,0.2822,0.286,0.287,0.2902,0.294,0.2965,0.3014,0.3026,0.3072,0.3075,0.306,0.3062,0.3082,0.308,0.3141,0.315,0.3109,0.3109,0.3109,0,0.2623,0.2649,0.269,0.2711,0.273,0.2763,0.2786,0.2808,0.2832,0.2872,0.2893,0.2932,0.2964,0.3024,0.3052,0.309,0.3095,0.3114,0.3101,0.3095,0.3097,0.3096,0.3099,0.3116,0.3117,0.3117,0.3117,0,0.2662,0.2672,0.2704,0.274,0.2766,0.2796,0.2826,0.2842,0.287,0.2895,0.2934,0.2959,0.3008,0.3047,0.3087,0.3109,0.3118,0.3121,0.3128,0.3123,0.3114,0.312,0.3067,0.312,0.3119,0.3119,0.3119,0.3119,0.2688,0.2711,0.2744,0.2779,0.2803,0.283,0.2856,0.2878,0.2911,0.2952,0.2964,0.3004,0.3038,0.3093,0.3115,0.3148,0.3146,0.3156,0.3158,0.3161,0.3161,0.3107,0.3155,0.3155,0.3155,0.3155,0.3155,0,0.2728,0.275,0.2781,0.2822,0.285,0.2854,0.2887,0.2911,0.2946,0.2976,0.3007,0.3052,0.3089,0.312,0.3159,0.3179,0.3185,0.3189,0.3188,0.3193,0.316,0.3151,0.3184,0.3184,0.3184,0.3184,0.3184,0.3184,0.2753,0.2793,0.2807,0.286,0.2881,0.292,0.2939,0.2964,0.2989,0.3038,0.3069,0.3088,0.3118,0.316,0.3195,0.3203,0.3217,0.322,0.323,0.3199,0.3195,0.3192,0.3184,0.3223,0.3223,0.326,0.326,0.326]}]]